TimeCST,TemperatureF,Dew PointF,Humidity,Sea Level PressureIn,VisibilityMPH,Wind Direction,Wind SpeedMPH,Gust SpeedMPH,PrecipitationIn,Events,Conditions,WindDirDegrees,DateUTC
12:55 AM,8.1,4.8,87,30.40,10.0,Calm,Calm,-,N/A,,Overcast,0,2013-01-18 06:55:00
1:55 AM,11.7,7.7,84,30.40,10.0,SSE,4.6,-,N/A,,Overcast,160,2013-01-18 07:55:00
2:55 AM,13.3,9.1,84,30.38,10.0,ESE,3.5,-,N/A,,Overcast,120,2013-01-18 08:55:00
3:00 AM,14.0,8.6,79,30.38,10.0,ESE,4.6,-,N/A,,Overcast,110,2013-01-18 09:00:00
3:42 AM,14.0,8.6,79,30.35,10.0,SE,4.6,-,N/A,,Overcast,130,2013-01-18 09:42:00
3:52 AM,14.0,8.6,79,30.35,10.0,ESE,4.6,-,N/A,Snow,Light Snow,120,2013-01-18 09:52:00
3:54 AM,14.0,8.6,79,30.35,10.0,ESE,5.8,-,N/A,Snow,Light Snow,120,2013-01-18 09:54:00
3:55 AM,14.4,9.3,80,30.35,10.0,ESE,5.8,-,0.00,Snow,Light Snow,120,2013-01-18 09:55:00
3:57 AM,14.0,8.6,79,30.34,10.0,ESE,5.8,-,N/A,Snow,Light Snow,120,2013-01-18 09:57:00
3:59 AM,14.0,8.6,79,30.34,10.0,ESE,5.8,-,N/A,Snow,Light Snow,120,2013-01-18 09:59:00
4:13 AM,14.0,10.4,86,30.32,9.0,ESE,6.9,-,N/A,Snow,Light Snow,120,2013-01-18 10:13:00
4:19 AM,14.0,10.4,86,30.32,7.0,ESE,6.9,-,N/A,Snow,Light Snow,120,2013-01-18 10:19:00
4:35 AM,14.0,10.4,86,30.30,2.5,ESE,8.1,-,N/A,Snow,Light Snow,120,2013-01-18 10:35:00
4:46 AM,14.0,10.4,86,30.30,3.0,ESE,8.1,-,N/A,Snow,Light Snow,120,2013-01-18 10:46:00
4:55 AM,14.4,10.6,85,30.30,3.0,ESE,9.2,-,0.00,Snow,Light Snow,120,2013-01-18 10:55:00
5:55 AM,14.9,11.5,86,30.26,5.0,SE,9.2,-,0.00,Snow,Light Snow,130,2013-01-18 11:55:00
6:15 AM,15.8,12.2,86,30.25,9.0,ESE,10.4,-,N/A,Snow,Light Snow,120,2013-01-18 12:15:00
6:20 AM,15.8,12.2,86,30.24,10.0,SE,10.4,-,N/A,,Overcast,130,2013-01-18 12:20:00
6:55 AM,15.8,12.2,86,30.21,10.0,SE,9.2,-,N/A,,Overcast,130,2013-01-18 12:55:00
7:55 AM,17.6,14.0,86,30.15,10.0,SE,9.2,-,N/A,,Overcast,130,2013-01-18 13:55:00
8:55 AM,21.2,15.8,80,30.09,10.0,SSE,9.2,19.6,N/A,,Overcast,160,2013-01-18 14:55:00
9:55 AM,28.4,19.4,69,30.04,10.0,South,13.8,23.0,N/A,,Mostly Cloudy,180,2013-01-18 15:55:00
10:55 AM,33.8,24.8,70,29.99,10.0,South,11.5,-,N/A,,Partly Cloudy,190,2013-01-18 16:55:00
11:55 AM,39.2,26.6,61,29.91,10.0,SSW,13.8,25.3,N/A,,Mostly Cloudy,200,2013-01-18 17:55:00
12:55 PM,44.6,30.2,57,29.86,10.0,SSW,13.8,24.2,N/A,,Scattered Clouds,210,2013-01-18 18:55:00
1:55 PM,44.6,28.4,53,29.82,10.0,SW,11.5,-,N/A,,Scattered Clouds,220,2013-01-18 19:55:00
2:55 PM,46.4,30.2,53,29.80,10.0,SW,11.5,24.2,N/A,,Mostly Cloudy,230,2013-01-18 20:55:00
3:55 PM,44.6,30.2,57,29.79,10.0,SW,11.5,21.9,N/A,,Mostly Cloudy,220,2013-01-18 21:55:00
4:55 PM,43.3,30.9,62,29.78,10.0,SSW,12.7,16.1,N/A,,Clear,210,2013-01-18 22:55:00
5:55 PM,43.3,31.6,63,29.79,10.0,SW,12.7,-,N/A,,Clear,220,2013-01-18 23:55:00
6:55 PM,42.4,32.0,67,29.80,10.0,SW,9.2,18.4,N/A,,Clear,230,2013-01-19 00:55:00
7:55 PM,40.6,32.0,71,29.79,10.0,WSW,11.5,-,N/A,,Clear,240,2013-01-19 01:55:00
8:55 PM,39.0,31.5,74,29.79,10.0,West,9.2,-,N/A,,Clear,260,2013-01-19 02:55:00
9:55 PM,38.3,31.3,76,29.80,10.0,West,11.5,-,N/A,,Clear,260,2013-01-19 03:55:00
10:55 PM,37.4,30.9,77,29.80,10.0,West,11.5,-,N/A,,Clear,270,2013-01-19 04:55:00
11:55 PM,34.3,29.3,82,29.80,10.0,WSW,6.9,-,N/A,,Clear,250,2013-01-19 05:55:00